Location: Devore Heights
(34.2372°N, 117.4156°W)
Time: 03:36:43
(UTC+00:00)

deb Explorer IX - Pass Details

Date: 22 September 2024
Orbit: 504 x 828 km, 38.7° (Epoch: 05 October)

Event Time Altitude Azimuth Distance (km) Brightness Sun altitude
Rises 22:08:08 0° 202° (SSW) 2,984 ? 41.5°
Reaches altitude 10° 22:11:02 10° 183° (S) 2,144 ? 41.0°
Maximum altitude 22:14:31 19° 140° (SE) 1,708 ? 40.5°
Drops below altitude 10° 22:18:13 10° 96° (E) 2,308 ? 39.8°
Sets 22:21:28 0° 80° (E) 3,298 ? 39.3°
